contact:dominique.lefevre@mio.osupytheas.fr, maurice.libes@osupytheas.fr, didier.mallarino@osupytheas.fr
Project:EMSO http://www.emso-fr.org/EMSO-France
Depth: 2436.0 m
Title:EMSO Ligure Ouest : Data MII capteur MICROCAT
DateTime_Computer,Latitude,Longitude,Temperature,Conductivity,Pressure,DateTime_Instrument
DateTime_Computer,Latitude,Longitude,degC,S m-1,dbar,DateTime_Instrument
2020-12-22T00:01:22Z,42.805,6.029,13.3017,4.60017,2470.203,2020-12-22T02:02:21Z
2020-12-22T00:04:25Z,42.805,6.029,13.3020,4.60020,2470.203,2020-12-22T02:05:24Z
2020-12-22T00:07:28Z,42.805,6.029,13.3023,4.60039,2470.24,2020-12-22T02:08:27Z
2020-12-22T00:10:31Z,42.805,6.029,13.3029,4.60026,2470.203,2020-12-22T02:11:30Z
2020-12-22T00:13:34Z,42.805,6.029,13.3018,4.60021,2470.203,2020-12-22T02:14:34Z
2020-12-22T00:16:37Z,42.805,6.029,13.3021,4.60014,2470.227,2020-12-22T02:17:37Z
2020-12-22T00:19:40Z,42.805,6.029,13.3006,4.60015,2470.227,2020-12-22T02:20:40Z
2020-12-22T00:22:43Z,42.805,6.029,13.3015,4.60028,2470.203,2020-12-22T02:23:43Z
2020-12-22T00:25:47Z,42.805,6.029,13.3015,4.60026,2470.24,2020-12-22T02:26:46Z
2020-12-22T00:28:50Z,42.805,6.029,13.3022,4.60015,2470.24,2020-12-22T02:29:49Z
2020-12-22T00:31:53Z,42.805,6.029,13.3019,4.60025,2470.227,2020-12-22T02:32:52Z
2020-12-22T00:34:56Z,42.805,6.029,13.3019,4.60024,2470.203,2020-12-22T02:35:55Z
2020-12-22T00:37:59Z,42.805,6.029,13.3034,4.60017,2470.203,2020-12-22T02:38:59Z
2020-12-22T00:41:02Z,42.805,6.029,13.3022,4.60016,2470.203,2020-12-22T02:42:02Z
2020-12-22T00:44:05Z,42.805,6.029,13.3022,4.60030,2470.227,2020-12-22T02:45:05Z
2020-12-22T00:47:08Z,42.805,6.029,13.3017,4.60020,2470.203,2020-12-22T02:48:08Z
2020-12-22T00:50:12Z,42.805,6.029,13.3017,4.60020,2470.203,2020-12-22T02:51:11Z
2020-12-22T00:53:15Z,42.805,6.029,13.3024,4.60015,2470.203,2020-12-22T02:54:14Z
2020-12-22T00:56:18Z,42.805,6.029,13.3014,4.60016,2470.25,2020-12-22T02:57:17Z
2020-12-22T00:59:21Z,42.805,6.029,13.3013,4.60011,2470.227,2020-12-22T03:00:20Z
2020-12-22T01:02:24Z,42.805,6.029,13.3008,4.60014,2470.24,2020-12-22T03:03:23Z
2020-12-22T01:05:27Z,42.805,6.029,13.3034,4.60013,2470.25,2020-12-22T03:06:27Z
2020-12-22T01:08:30Z,42.805,6.029,13.3006,4.60014,2470.203,2020-12-22T03:09:30Z
2020-12-22T01:11:33Z,42.805,6.029,13.3005,4.60011,2470.227,2020-12-22T03:12:33Z
2020-12-22T01:14:37Z,42.805,6.029,13.3008,4.60013,2470.227,2020-12-22T03:15:36Z
2020-12-22T01:17:40Z,42.805,6.029,13.3018,4.60011,2470.264,2020-12-22T03:18:39Z
2020-12-22T01:20:43Z,42.805,6.029,13.3023,4.60025,2470.203,2020-12-22T03:21:42Z
2020-12-22T01:23:46Z,42.805,6.029,13.3015,4.60016,2470.203,2020-12-22T03:24:45Z
2020-12-22T01:26:49Z,42.805,6.029,13.3016,4.60017,2470.217,2020-12-22T03:27:48Z
2020-12-22T01:29:52Z,42.805,6.029,13.3013,4.60011,2470.171,2020-12-22T03:30:52Z
2020-12-22T01:32:55Z,42.805,6.029,13.3015,4.60014,2470.171,2020-12-22T03:33:55Z
2020-12-22T01:35:58Z,42.805,6.029,13.3012,4.60014,2470.227,2020-12-22T03:36:58Z
2020-12-22T01:39:02Z,42.805,6.029,13.3021,4.60028,2470.18,2020-12-22T03:40:01Z
2020-12-22T01:42:05Z,42.805,6.029,13.3016,4.60013,2470.24,2020-12-22T03:43:04Z
2020-12-22T01:45:08Z,42.805,6.029,13.3009,4.60010,2470.203,2020-12-22T03:46:07Z
2020-12-22T01:48:11Z,42.805,6.029,13.3009,4.60010,2470.203,2020-12-22T03:49:10Z
2020-12-22T01:51:14Z,42.805,6.029,13.3014,4.60019,2470.203,2020-12-22T03:52:13Z
2020-12-22T01:54:17Z,42.805,6.029,13.3011,4.60014,2470.217,2020-12-22T03:55:17Z
2020-12-22T01:57:20Z,42.805,6.029,13.3009,4.60014,2470.18,2020-12-22T03:58:20Z
2020-12-22T02:00:23Z,42.805,6.029,13.3030,4.60008,2470.194,2020-12-22T04:01:23Z
2020-12-22T02:03:26Z,42.805,6.029,13.3016,4.60013,2470.194,2020-12-22T04:04:26Z
2020-12-22T02:06:30Z,42.805,6.029,13.3011,4.60014,2470.24,2020-12-22T04:07:29Z
2020-12-22T02:09:33Z,42.805,6.029,13.3017,4.60014,2470.217,2020-12-22T04:10:32Z
2020-12-22T02:12:36Z,42.805,6.029,13.3005,4.60008,2470.24,2020-12-22T04:13:35Z
2020-12-22T02:15:39Z,42.805,6.029,13.3011,4.60017,2470.217,2020-12-22T04:16:38Z
2020-12-22T02:18:42Z,42.805,6.029,13.3015,4.60008,2470.203,2020-12-22T04:19:42Z
2020-12-22T02:21:45Z,42.805,6.029,13.3012,4.60016,2470.203,2020-12-22T04:22:45Z
2020-12-22T02:24:48Z,42.805,6.029,13.3026,4.60012,2470.203,2020-12-22T04:25:48Z
2020-12-22T02:27:51Z,42.805,6.029,13.3015,4.60014,2470.227,2020-12-22T04:28:51Z
2020-12-22T02:30:55Z,42.805,6.029,13.3024,4.60011,2470.24,2020-12-22T04:31:54Z
2020-12-22T02:33:58Z,42.805,6.029,13.3019,4.60007,2470.203,2020-12-22T04:34:57Z
2020-12-22T02:37:01Z,42.805,6.029,13.3015,4.60004,2470.203,2020-12-22T04:38:00Z
2020-12-22T02:40:04Z,42.805,6.029,13.3010,4.60008,2470.227,2020-12-22T04:41:03Z
2020-12-22T02:43:07Z,42.805,6.029,13.3008,4.60008,2470.194,2020-12-22T04:44:07Z
2020-12-22T02:46:10Z,42.805,6.029,13.3004,4.60004,2470.24,2020-12-22T04:47:10Z
2020-12-22T02:49:13Z,42.805,6.029,13.3006,4.60009,2470.217,2020-12-22T04:50:13Z
2020-12-22T02:52:16Z,42.805,6.029,13.3007,4.60009,2470.18,2020-12-22T04:53:16Z
2020-12-22T02:55:20Z,42.805,6.029,13.3009,4.60020,2470.156,2020-12-22T04:56:19Z
2020-12-22T02:58:23Z,42.805,6.029,13.3014,4.60008,2470.18,2020-12-22T04:59:22Z
2020-12-22T03:01:26Z,42.805,6.029,13.3022,4.60001,2470.171,2020-12-22T05:02:25Z
2020-12-22T03:04:29Z,42.805,6.029,13.3020,4.60003,2470.194,2020-12-22T05:05:28Z
2020-12-22T03:07:32Z,42.805,6.029,13.3006,4.60005,2470.217,2020-12-22T05:08:31Z
2020-12-22T03:10:35Z,42.805,6.029,13.3000,4.60006,2470.156,2020-12-22T05:11:35Z
2020-12-22T03:13:38Z,42.805,6.029,13.3009,4.60000,2470.203,2020-12-22T05:14:38Z
2020-12-22T03:16:41Z,42.805,6.029,13.3008,4.60003,2470.18,2020-12-22T05:17:41Z
2020-12-22T03:19:45Z,42.805,6.029,13.3006,4.60004,2470.194,2020-12-22T05:20:44Z
2020-12-22T03:22:48Z,42.805,6.029,13.3015,4.60011,2470.194,2020-12-22T05:23:47Z
2020-12-22T03:25:51Z,42.805,6.029,13.3009,4.60002,2470.171,2020-12-22T05:26:50Z
2020-12-22T03:28:54Z,42.805,6.029,13.3006,4.60011,2470.217,2020-12-22T05:29:53Z
2020-12-22T03:31:57Z,42.805,6.029,13.3009,4.60011,2470.156,2020-12-22T05:32:56Z
2020-12-22T03:35:00Z,42.805,6.029,13.3013,4.60004,2470.203,2020-12-22T05:36:00Z
2020-12-22T03:38:03Z,42.805,6.029,13.3015,4.60004,2470.171,2020-12-22T05:39:03Z
2020-12-22T03:41:06Z,42.805,6.029,13.3016,4.60001,2470.171,2020-12-22T05:42:06Z
2020-12-22T03:44:10Z,42.805,6.029,13.3006,4.59999,2470.18,2020-12-22T05:45:09Z
2020-12-22T03:47:13Z,42.805,6.029,13.3012,4.60005,2470.217,2020-12-22T05:48:12Z
2020-12-22T03:50:16Z,42.805,6.029,13.3015,4.60006,2470.189,2020-12-22T05:51:15Z
2020-12-22T03:53:19Z,42.805,6.029,13.3004,4.60008,2470.156,2020-12-22T05:54:18Z
2020-12-22T03:56:22Z,42.805,6.029,13.3009,4.60004,2470.156,2020-12-22T05:57:21Z
2020-12-22T03:59:25Z,42.805,6.029,13.3005,4.60008,2470.217,2020-12-22T06:00:25Z
2020-12-22T04:02:28Z,42.805,6.029,13.3005,4.60004,2470.156,2020-12-22T06:03:28Z
2020-12-22T04:05:31Z,42.805,6.029,13.2997,4.60011,2470.18,2020-12-22T06:06:31Z
2020-12-22T04:08:34Z,42.805,6.029,13.3019,4.60005,2470.217,2020-12-22T06:09:34Z
2020-12-22T04:11:38Z,42.805,6.029,13.3014,4.60004,2470.156,2020-12-22T06:12:37Z
2020-12-22T04:14:41Z,42.805,6.029,13.3011,4.60008,2470.194,2020-12-22T06:15:40Z
2020-12-22T04:17:44Z,42.805,6.029,13.3020,4.60003,2470.156,2020-12-22T06:18:43Z
2020-12-22T04:20:47Z,42.805,6.029,13.3026,4.60009,2470.18,2020-12-22T06:21:46Z
2020-12-22T04:23:50Z,42.805,6.029,13.3013,4.60009,2470.189,2020-12-22T06:24:50Z
2020-12-22T04:26:53Z,42.805,6.029,13.3021,4.60009,2470.18,2020-12-22T06:27:53Z
2020-12-22T04:29:56Z,42.805,6.029,13.3024,4.60011,2470.147,2020-12-22T06:30:56Z
2020-12-22T04:32:59Z,42.805,6.029,13.3009,4.60001,2470.194,2020-12-22T06:33:59Z
2020-12-22T04:36:03Z,42.805,6.029,13.2998,4.60003,2470.171,2020-12-22T06:37:02Z
2020-12-22T04:39:06Z,42.805,6.029,13.3005,4.60007,2470.194,2020-12-22T06:40:05Z
2020-12-22T04:42:09Z,42.805,6.029,13.3006,4.60001,2470.156,2020-12-22T06:43:08Z
2020-12-22T04:45:12Z,42.805,6.029,13.3009,4.59999,2470.194,2020-12-22T06:46:11Z
2020-12-22T04:48:15Z,42.805,6.029,13.3007,4.60008,2470.156,2020-12-22T06:49:15Z
2020-12-22T04:51:18Z,42.805,6.029,13.3003,4.60004,2470.156,2020-12-22T06:52:18Z
2020-12-22T04:54:21Z,42.805,6.029,13.3001,4.60009,2470.194,2020-12-22T06:55:21Z
2020-12-22T04:57:24Z,42.805,6.029,13.3013,4.60004,2470.18,2020-12-22T06:58:24Z
2020-12-22T05:00:28Z,42.805,6.029,13.3011,4.60005,2470.217,2020-12-22T07:01:27Z
2020-12-22T05:03:31Z,42.805,6.029,13.3013,4.60006,2470.18,2020-12-22T07:04:30Z
2020-12-22T05:06:34Z,42.805,6.029,13.3013,4.60002,2470.171,2020-12-22T07:07:33Z
2020-12-22T05:09:37Z,42.805,6.029,13.3012,4.59999,2470.203,2020-12-22T07:10:36Z
2020-12-22T05:12:40Z,42.805,6.029,13.3011,4.60002,2470.194,2020-12-22T07:13:40Z
2020-12-22T05:15:43Z,42.805,6.029,13.3007,4.60001,2470.194,2020-12-22T07:16:43Z
2020-12-22T05:18:46Z,42.805,6.029,13.3007,4.60005,2470.18,2020-12-22T07:19:46Z
2020-12-22T05:21:49Z,42.805,6.029,13.3003,4.60009,2470.203,2020-12-22T07:22:49Z
2020-12-22T05:24:53Z,42.805,6.029,13.3015,4.60002,2470.156,2020-12-22T07:25:52Z
2020-12-22T05:27:56Z,42.805,6.029,13.3002,4.60008,2470.156,2020-12-22T07:28:55Z
2020-12-22T05:30:59Z,42.805,6.029,13.3008,4.60004,2470.217,2020-12-22T07:31:58Z
2020-12-22T05:34:02Z,42.805,6.029,13.2998,4.60003,2470.171,2020-12-22T07:35:01Z
2020-12-22T05:37:05Z,42.805,6.029,13.3005,4.60004,2470.147,2020-12-22T07:38:04Z
2020-12-22T05:40:08Z,42.805,6.029,13.3007,4.60003,2470.156,2020-12-22T07:41:08Z
2020-12-22T05:43:11Z,42.805,6.029,13.3006,4.60009,2470.143,2020-12-22T07:44:11Z
2020-12-22T05:46:14Z,42.805,6.029,13.3004,4.60014,2470.156,2020-12-22T07:47:14Z
2020-12-22T05:49:18Z,42.805,6.029,13.3004,4.60005,2470.156,2020-12-22T07:50:17Z
2020-12-22T05:52:21Z,42.805,6.029,13.3005,4.60020,2470.171,2020-12-22T07:53:20Z
2020-12-22T05:55:24Z,42.805,6.029,13.3006,4.59999,2470.133,2020-12-22T07:56:23Z
2020-12-22T05:58:27Z,42.805,6.029,13.3001,4.60008,2470.184,2020-12-22T07:59:26Z
2020-12-22T06:01:30Z,42.805,6.029,13.2998,4.60006,2470.156,2020-12-22T08:02:30Z
2020-12-22T06:04:33Z,42.805,6.029,13.3016,4.60001,2470.171,2020-12-22T08:05:33Z
2020-12-22T06:07:36Z,42.805,6.029,13.2997,4.60010,2470.18,2020-12-22T08:08:36Z
2020-12-22T06:10:39Z,42.805,6.029,13.2996,4.59997,2470.171,2020-12-22T08:11:39Z
2020-12-22T06:13:43Z,42.805,6.029,13.3011,4.60002,2470.18,2020-12-22T08:14:42Z
2020-12-22T06:16:46Z,42.805,6.029,13.3004,4.60003,2470.147,2020-12-22T08:17:45Z
2020-12-22T06:19:49Z,42.805,6.029,13.3009,4.60000,2470.133,2020-12-22T08:20:48Z
2020-12-22T06:22:52Z,42.805,6.029,13.3011,4.60011,2470.171,2020-12-22T08:23:51Z
2020-12-22T06:25:55Z,42.805,6.029,13.3004,4.59999,2470.147,2020-12-22T08:26:54Z
2020-12-22T06:28:58Z,42.805,6.029,13.2999,4.59997,2470.171,2020-12-22T08:29:58Z
2020-12-22T06:32:01Z,42.805,6.029,13.3006,4.60011,2470.133,2020-12-22T08:33:01Z
2020-12-22T06:35:04Z,42.805,6.029,13.2999,4.60007,2470.18,2020-12-22T08:36:04Z
2020-12-22T06:38:07Z,42.805,6.029,13.3008,4.60007,2470.156,2020-12-22T08:39:07Z
2020-12-22T06:41:11Z,42.805,6.029,13.3003,4.60013,2470.171,2020-12-22T08:42:10Z
2020-12-22T06:44:14Z,42.805,6.029,13.3007,4.60000,2470.156,2020-12-22T08:45:13Z
2020-12-22T06:47:17Z,42.805,6.029,13.3000,4.60014,2470.171,2020-12-22T08:48:16Z
2020-12-22T06:50:20Z,42.805,6.029,13.3000,4.60010,2470.18,2020-12-22T08:51:19Z
2020-12-22T06:53:23Z,42.805,6.029,13.2998,4.60002,2470.133,2020-12-22T08:54:23Z
2020-12-22T06:56:26Z,42.805,6.029,13.2998,4.60033,2470.18,2020-12-22T08:57:26Z
2020-12-22T06:59:29Z,42.805,6.029,13.2998,4.59998,2470.194,2020-12-22T09:00:29Z
2020-12-22T07:02:32Z,42.805,6.029,13.3001,4.60009,2470.171,2020-12-22T09:03:32Z
2020-12-22T07:05:36Z,42.805,6.029,13.3012,4.60006,2470.194,2020-12-22T09:06:35Z
2020-12-22T07:08:39Z,42.805,6.029,13.3000,4.60003,2470.194,2020-12-22T09:09:38Z
2020-12-22T07:11:42Z,42.805,6.029,13.2997,4.59999,2470.18,2020-12-22T09:12:41Z
2020-12-22T07:14:45Z,42.805,6.029,13.2997,4.59999,2470.156,2020-12-22T09:15:44Z
2020-12-22T07:17:48Z,42.805,6.029,13.2993,4.59994,2470.156,2020-12-22T09:18:48Z
2020-12-22T07:20:51Z,42.805,6.029,13.2998,4.59996,2470.156,2020-12-22T09:21:51Z
2020-12-22T07:23:54Z,42.805,6.029,13.2994,4.59997,2470.133,2020-12-22T09:24:54Z
2020-12-22T07:26:57Z,42.805,6.029,13.2998,4.59995,2470.171,2020-12-22T09:27:57Z
2020-12-22T07:30:01Z,42.805,6.029,13.3000,4.60009,2470.18,2020-12-22T09:31:00Z
2020-12-22T07:33:04Z,42.805,6.029,13.2996,4.59995,2470.18,2020-12-22T09:34:03Z
2020-12-22T07:36:07Z,42.805,6.029,13.2988,4.60008,2470.133,2020-12-22T09:37:06Z
2020-12-22T07:39:10Z,42.805,6.029,13.3000,4.60002,2470.18,2020-12-22T09:40:09Z
2020-12-22T07:42:13Z,42.805,6.029,13.2998,4.59999,2470.18,2020-12-22T09:43:13Z
2020-12-22T07:45:16Z,42.805,6.029,13.3002,4.60026,2470.171,2020-12-22T09:46:16Z
2020-12-22T07:48:19Z,42.805,6.029,13.2996,4.59997,2470.156,2020-12-22T09:49:19Z
2020-12-22T07:51:22Z,42.805,6.029,13.2998,4.60003,2470.147,2020-12-22T09:52:22Z
2020-12-22T07:54:26Z,42.805,6.029,13.2998,4.60000,2470.171,2020-12-22T09:55:25Z
2020-12-22T07:57:29Z,42.805,6.029,13.2989,4.60011,2470.217,2020-12-22T09:58:28Z
2020-12-22T08:00:32Z,42.805,6.029,13.2998,4.60003,2470.227,2020-12-22T10:01:31Z
2020-12-22T08:03:35Z,42.805,6.029,13.2998,4.60003,2470.166,2020-12-22T10:04:34Z
2020-12-22T08:06:38Z,42.805,6.029,13.3000,4.59994,2470.171,2020-12-22T10:07:38Z
2020-12-22T08:09:41Z,42.805,6.029,13.2998,4.60011,2470.194,2020-12-22T10:10:41Z
2020-12-22T08:12:44Z,42.805,6.029,13.2996,4.59996,2470.156,2020-12-22T10:13:44Z
2020-12-22T08:15:47Z,42.805,6.029,13.2995,4.59998,2470.171,2020-12-22T10:16:47Z
2020-12-22T08:18:51Z,42.805,6.029,13.3001,4.60008,2470.18,2020-12-22T10:19:50Z
2020-12-22T08:21:54Z,42.805,6.029,13.2993,4.60016,2470.18,2020-12-22T10:22:53Z
2020-12-22T08:24:57Z,42.805,6.029,13.3000,4.60009,2470.156,2020-12-22T10:25:56Z
2020-12-22T08:28:00Z,42.805,6.029,13.3003,4.60017,2470.194,2020-12-22T10:28:59Z
2020-12-22T08:31:03Z,42.805,6.029,13.2992,4.60000,2470.18,2020-12-22T10:32:03Z
2020-12-22T08:34:06Z,42.805,6.029,13.2993,4.60015,2470.194,2020-12-22T10:35:06Z
2020-12-22T08:37:09Z,42.805,6.029,13.2992,4.60010,2470.156,2020-12-22T10:38:09Z
2020-12-22T08:40:12Z,42.805,6.029,13.2999,4.59997,2470.203,2020-12-22T10:41:12Z
2020-12-22T08:43:16Z,42.805,6.029,13.2998,4.59996,2470.194,2020-12-22T10:44:15Z
2020-12-22T08:46:19Z,42.805,6.029,13.2996,4.59999,2470.18,2020-12-22T10:47:18Z
2020-12-22T08:49:22Z,42.805,6.029,13.2992,4.60000,2470.217,2020-12-22T10:50:21Z
2020-12-22T08:52:25Z,42.805,6.029,13.2990,4.60006,2470.18,2020-12-22T10:53:24Z
2020-12-22T08:55:28Z,42.805,6.029,13.2993,4.59999,2470.203,2020-12-22T10:56:28Z
2020-12-22T08:58:31Z,42.805,6.029,13.2999,4.59998,2470.194,2020-12-22T10:59:31Z
2020-12-22T09:01:34Z,42.805,6.029,13.2991,4.60011,2470.217,2020-12-22T11:02:34Z
2020-12-22T09:04:37Z,42.805,6.029,13.2994,4.59998,2470.203,2020-12-22T11:05:37Z
2020-12-22T09:07:41Z,42.805,6.029,13.3001,4.60011,2470.217,2020-12-22T11:08:40Z
2020-12-22T09:10:44Z,42.805,6.029,13.2996,4.60004,2470.18,2020-12-22T11:11:43Z
2020-12-22T09:13:47Z,42.805,6.029,13.2992,4.60003,2470.194,2020-12-22T11:14:46Z
2020-12-22T09:16:50Z,42.805,6.029,13.3009,4.60017,2470.194,2020-12-22T11:17:49Z
2020-12-22T09:19:53Z,42.805,6.029,13.2987,4.60001,2470.203,2020-12-22T11:20:53Z
2020-12-22T09:22:56Z,42.805,6.029,13.2996,4.60009,2470.203,2020-12-22T11:23:56Z
2020-12-22T09:25:59Z,42.805,6.029,13.3002,4.60014,2470.203,2020-12-22T11:26:59Z
2020-12-22T09:29:03Z,42.805,6.029,13.3000,4.60017,2470.18,2020-12-22T11:30:02Z
2020-12-22T09:32:06Z,42.805,6.029,13.2991,4.60005,2470.18,2020-12-22T11:33:05Z
2020-12-22T09:35:09Z,42.805,6.029,13.2996,4.60003,2470.217,2020-12-22T11:36:08Z
2020-12-22T09:38:12Z,42.805,6.029,13.2993,4.60003,2470.217,2020-12-22T11:39:11Z
2020-12-22T09:41:15Z,42.805,6.029,13.2996,4.60003,2470.203,2020-12-22T11:42:14Z
2020-12-22T09:44:18Z,42.805,6.029,13.2990,4.60012,2470.227,2020-12-22T11:45:18Z
2020-12-22T09:47:21Z,42.805,6.029,13.2989,4.60006,2470.203,2020-12-22T11:48:21Z
2020-12-22T09:50:24Z,42.805,6.029,13.3003,4.60015,2470.18,2020-12-22T11:51:24Z
2020-12-22T09:53:28Z,42.805,6.029,13.2989,4.60008,2470.203,2020-12-22T11:54:27Z
2020-12-22T09:56:31Z,42.805,6.029,13.2991,4.60009,2470.24,2020-12-22T11:57:30Z
2020-12-22T09:59:34Z,42.805,6.029,13.2985,4.60002,2470.227,2020-12-22T12:00:33Z
2020-12-22T10:02:37Z,42.805,6.029,13.3004,4.60011,2470.18,2020-12-22T12:03:36Z
2020-12-22T10:05:40Z,42.805,6.029,13.2996,4.60008,2470.227,2020-12-22T12:06:40Z
2020-12-22T10:08:43Z,42.805,6.029,13.2981,4.59997,2470.227,2020-12-22T12:09:43Z
2020-12-22T10:11:46Z,42.805,6.029,13.2989,4.59996,2470.24,2020-12-22T12:12:46Z
2020-12-22T10:14:49Z,42.805,6.029,13.2986,4.60007,2470.25,2020-12-22T12:15:49Z
2020-12-22T10:17:53Z,42.805,6.029,13.3000,4.59994,2470.24,2020-12-22T12:18:52Z
2020-12-22T10:20:56Z,42.805,6.029,13.2986,4.60009,2470.264,2020-12-22T12:21:55Z
2020-12-22T10:23:59Z,42.805,6.029,13.2983,4.59990,2470.25,2020-12-22T12:24:58Z
2020-12-22T10:27:02Z,42.805,6.029,13.2982,4.59990,2470.273,2020-12-22T12:28:01Z
2020-12-22T10:30:05Z,42.805,6.029,13.2986,4.59996,2470.227,2020-12-22T12:31:05Z
2020-12-22T10:33:08Z,42.805,6.029,13.2984,4.59999,2470.227,2020-12-22T12:34:08Z
2020-12-22T10:36:11Z,42.805,6.029,13.2982,4.59994,2470.25,2020-12-22T12:37:11Z
2020-12-22T10:39:14Z,42.805,6.029,13.2980,4.59996,2470.25,2020-12-22T12:40:14Z
2020-12-22T10:42:18Z,42.805,6.029,13.2983,4.59991,2470.25,2020-12-22T12:43:17Z
2020-12-22T10:45:21Z,42.805,6.029,13.2985,4.60004,2470.273,2020-12-22T12:46:20Z
2020-12-22T10:48:24Z,42.805,6.029,13.3004,4.59995,2470.24,2020-12-22T12:49:23Z
2020-12-22T10:51:27Z,42.805,6.029,13.2981,4.59989,2470.25,2020-12-22T12:52:26Z
2020-12-22T10:54:30Z,42.805,6.029,13.2982,4.59991,2470.264,2020-12-22T12:55:30Z
2020-12-22T10:57:33Z,42.805,6.029,13.2985,4.59988,2470.264,2020-12-22T12:58:33Z
2020-12-22T11:00:36Z,42.805,6.029,13.2982,4.59988,2470.273,2020-12-22T13:01:36Z
2020-12-22T11:03:39Z,42.805,6.029,13.2987,4.59994,2470.26,2020-12-22T13:04:39Z
2020-12-22T11:06:43Z,42.805,6.029,13.2986,4.59992,2470.25,2020-12-22T13:07:42Z
2020-12-22T11:09:46Z,42.805,6.029,13.2982,4.59994,2470.31,2020-12-22T13:10:45Z
2020-12-22T11:12:49Z,42.805,6.029,13.2987,4.59991,2470.25,2020-12-22T13:13:48Z
2020-12-22T11:15:52Z,42.805,6.029,13.2979,4.59987,2470.287,2020-12-22T13:16:51Z
2020-12-22T11:18:55Z,42.805,6.029,13.2981,4.59987,2470.297,2020-12-22T13:19:55Z
2020-12-22T11:21:58Z,42.805,6.029,13.2981,4.59988,2470.287,2020-12-22T13:22:58Z
2020-12-22T11:25:01Z,42.805,6.029,13.2982,4.59987,2470.297,2020-12-22T13:26:01Z
2020-12-22T11:28:04Z,42.805,6.029,13.2983,4.59986,2470.31,2020-12-22T13:29:04Z
2020-12-22T11:31:08Z,42.805,6.029,13.2982,4.59986,2470.25,2020-12-22T13:32:07Z
2020-12-22T11:34:11Z,42.805,6.029,13.2979,4.59988,2470.334,2020-12-22T13:35:10Z
2020-12-22T11:37:14Z,42.805,6.029,13.2982,4.59989,2470.287,2020-12-22T13:38:13Z
2020-12-22T11:40:17Z,42.805,6.029,13.2982,4.59988,2470.297,2020-12-22T13:41:16Z
2020-12-22T11:43:20Z,42.805,6.029,13.2982,4.59991,2470.273,2020-12-22T13:44:20Z
2020-12-22T11:46:23Z,42.805,6.029,13.2983,4.59990,2470.273,2020-12-22T13:47:23Z
2020-12-22T11:49:26Z,42.805,6.029,13.2981,4.59990,2470.273,2020-12-22T13:50:26Z
2020-12-22T11:52:30Z,42.805,6.029,13.2984,4.59997,2470.273,2020-12-22T13:53:29Z
2020-12-22T11:55:33Z,42.805,6.029,13.2980,4.59990,2470.31,2020-12-22T13:56:32Z
2020-12-22T11:58:36Z,42.805,6.029,13.2982,4.59988,2470.273,2020-12-22T13:59:35Z
2020-12-22T12:01:39Z,42.805,6.029,13.2982,4.59989,2470.334,2020-12-22T14:02:38Z
2020-12-22T12:04:42Z,42.805,6.029,13.2981,4.59987,2470.334,2020-12-22T14:05:42Z
2020-12-22T12:07:45Z,42.805,6.029,13.2981,4.59988,2470.31,2020-12-22T14:08:45Z
2020-12-22T12:10:48Z,42.805,6.029,13.2982,4.59991,2470.297,2020-12-22T14:11:48Z
2020-12-22T12:13:51Z,42.805,6.029,13.2982,4.59987,2470.287,2020-12-22T14:14:51Z
2020-12-22T12:16:55Z,42.805,6.029,13.2981,4.59988,2470.297,2020-12-22T14:17:54Z
2020-12-22T12:19:58Z,42.805,6.029,13.2980,4.59988,2470.31,2020-12-22T14:20:57Z
2020-12-22T12:23:01Z,42.805,6.029,13.2981,4.59987,2470.31,2020-12-22T14:24:00Z
2020-12-22T12:26:04Z,42.805,6.029,13.2982,4.59989,2470.31,2020-12-22T14:27:03Z
2020-12-22T12:29:07Z,42.805,6.029,13.2982,4.59988,2470.297,2020-12-22T14:30:07Z
2020-12-22T12:32:10Z,42.805,6.029,13.2981,4.59988,2470.26,2020-12-22T14:33:10Z
2020-12-22T12:35:13Z,42.805,6.029,13.2982,4.59987,2470.297,2020-12-22T14:36:13Z
2020-12-22T12:38:16Z,42.805,6.029,13.2983,4.59987,2470.297,2020-12-22T14:39:16Z
2020-12-22T12:41:20Z,42.805,6.029,13.2986,4.59986,2470.264,2020-12-22T14:42:19Z
2020-12-22T12:44:23Z,42.805,6.029,13.2982,4.59988,2470.297,2020-12-22T14:45:22Z
2020-12-22T12:47:26Z,42.805,6.029,13.2985,4.59987,2470.297,2020-12-22T14:48:25Z
2020-12-22T12:50:29Z,42.805,6.029,13.2983,4.59990,2470.287,2020-12-22T14:51:28Z
2020-12-22T12:53:32Z,42.805,6.029,13.2981,4.59988,2470.31,2020-12-22T14:54:32Z
2020-12-22T12:56:35Z,42.805,6.029,13.2982,4.59988,2470.273,2020-12-22T14:57:35Z
2020-12-22T12:59:38Z,42.805,6.029,13.2982,4.59987,2470.297,2020-12-22T15:00:38Z
2020-12-22T13:02:41Z,42.805,6.029,13.2981,4.59987,2470.264,2020-12-22T15:03:41Z
2020-12-22T13:05:45Z,42.805,6.029,13.2980,4.59988,2470.31,2020-12-22T15:06:44Z
2020-12-22T13:08:48Z,42.805,6.029,13.2983,4.59987,2470.297,2020-12-22T15:09:47Z
2020-12-22T13:11:51Z,42.805,6.029,13.2984,4.59988,2470.31,2020-12-22T15:12:50Z
2020-12-22T13:14:54Z,42.805,6.029,13.2983,4.59987,2470.287,2020-12-22T15:15:53Z
2020-12-22T13:17:57Z,42.805,6.029,13.2982,4.59988,2470.273,2020-12-22T15:18:57Z
2020-12-22T13:21:00Z,42.805,6.029,13.2982,4.59988,2470.297,2020-12-22T15:22:00Z
2020-12-22T13:24:03Z,42.805,6.029,13.2987,4.59988,2470.273,2020-12-22T15:25:03Z
2020-12-22T13:27:06Z,42.805,6.029,13.2982,4.59987,2470.297,2020-12-22T15:28:06Z
2020-12-22T13:30:10Z,42.805,6.029,13.2985,4.59987,2470.273,2020-12-22T15:31:09Z
2020-12-22T13:33:13Z,42.805,6.029,13.2982,4.59988,2470.297,2020-12-22T15:34:12Z
2020-12-22T13:36:16Z,42.805,6.029,13.2981,4.59988,2470.297,2020-12-22T15:37:15Z
2020-12-22T13:39:19Z,42.805,6.029,13.2983,4.59986,2470.297,2020-12-22T15:40:18Z
2020-12-22T13:42:22Z,42.805,6.029,13.2980,4.59988,2470.287,2020-12-22T15:43:22Z
2020-12-22T13:45:25Z,42.805,6.029,13.2982,4.59990,2470.31,2020-12-22T15:46:25Z
2020-12-22T13:48:28Z,42.805,6.029,13.2982,4.59988,2470.287,2020-12-22T15:49:28Z
2020-12-22T13:51:32Z,42.805,6.029,13.2980,4.59989,2470.297,2020-12-22T15:52:31Z
2020-12-22T13:54:35Z,42.805,6.029,13.2984,4.59987,2470.31,2020-12-22T15:55:34Z
2020-12-22T13:57:38Z,42.805,6.029,13.2982,4.59988,2470.273,2020-12-22T15:58:37Z
2020-12-22T14:00:41Z,42.805,6.029,13.2983,4.59988,2470.287,2020-12-22T16:01:40Z
2020-12-22T14:03:44Z,42.805,6.029,13.2982,4.59990,2470.273,2020-12-22T16:04:43Z
2020-12-22T14:06:47Z,42.805,6.029,13.2984,4.59988,2470.31,2020-12-22T16:07:47Z
2020-12-22T14:09:50Z,42.805,6.029,13.2983,4.59991,2470.31,2020-12-22T16:10:50Z
2020-12-22T14:12:53Z,42.805,6.029,13.2983,4.59992,2470.297,2020-12-22T16:13:53Z
2020-12-22T14:15:57Z,42.805,6.029,13.2980,4.59989,2470.273,2020-12-22T16:16:56Z
2020-12-22T14:19:00Z,42.805,6.029,13.2983,4.59992,2470.31,2020-12-22T16:19:59Z
2020-12-22T14:22:03Z,42.805,6.029,13.2984,4.59988,2470.297,2020-12-22T16:23:02Z
2020-12-22T14:25:06Z,42.805,6.029,13.2983,4.59991,2470.273,2020-12-22T16:26:05Z
2020-12-22T14:28:09Z,42.805,6.029,13.2979,4.59990,2470.297,2020-12-22T16:29:08Z
2020-12-22T14:31:12Z,42.805,6.029,13.2988,4.59991,2470.25,2020-12-22T16:32:12Z
2020-12-22T14:34:15Z,42.805,6.029,13.2985,4.59991,2470.287,2020-12-22T16:35:15Z
2020-12-22T14:37:18Z,42.805,6.029,13.2983,4.59991,2470.287,2020-12-22T16:38:18Z
2020-12-22T14:40:22Z,42.805,6.029,13.2983,4.59991,2470.32,2020-12-22T16:41:21Z
2020-12-22T14:43:25Z,42.805,6.029,13.2979,4.59988,2470.32,2020-12-22T16:44:24Z
2020-12-22T14:46:28Z,42.805,6.029,13.2982,4.59987,2470.264,2020-12-22T16:47:27Z
2020-12-22T14:49:31Z,42.805,6.029,13.2984,4.59989,2470.31,2020-12-22T16:50:30Z
2020-12-22T14:52:34Z,42.805,6.029,13.2979,4.59988,2470.25,2020-12-22T16:53:34Z
2020-12-22T14:55:37Z,42.805,6.029,13.2979,4.59989,2470.287,2020-12-22T16:56:37Z
2020-12-22T14:58:40Z,42.805,6.029,13.2982,4.59991,2470.273,2020-12-22T16:59:40Z
2020-12-22T15:01:43Z,42.805,6.029,13.2980,4.59991,2470.287,2020-12-22T17:02:43Z